Terminal Aerodrome Forecast
Issued by NWS Boston, MA

Home | Current Version | Previous Version | Text Only | Print | Product List | Glossary On
Versions: 1 2 3 4 5 6 7 8 9 10 11 12 13 14 15 16 17 18 19 20 21 22 23 24 25 26 27 28 29 30 31 32 33 34 35 36 37 38 39 40 41 42 43 44 45 46 47
000
FTUS41 KBOX 062037 AAA
TAFPVD
TAF AMD
KPVD 062037Z 0621/0718 20012KT P6SM BKN250
     FM070100 18006KT P6SM BKN100
     FM070800 16004KT 5SM BR BKN020
     FM071200 16004KT P6SM BKN008
     FM071400 16009KT P6SM BKN020=

USA.gov is the U.S. government's official web portal to all federal, state and local government web resources and services.